sat.trackr.live / text

‹ back to catalog

SBIRS GEO-6 (USA 336)

NORAD 53355 · 2022-092A

PAYLOAD ACTIVE UNKNOWN

§ Identity

Operator
Country
US
Launch date
2022-08-04
Launch site
AFETR
Launch vehicle
Mass (kg)
RCS (m²)

Purposes: comms

External: N2YO · Heavens-Above · Gunter

§ Orbital elements

Epoch: 2026-09-19T20:08:23.621856Z

Period
1,436.09 min
Inclination
3.1088°
Eccentricity
0.0001915
Mean motion
1.00272145 rev/d
Perigee alt
35,778.4 km
Apogee alt
35,794.6 km
Semi-major
42,164.6 km
B*
0.0000e+0
RAAN
319.1666°
Arg perigee
213.2225°
Mean anomaly
267.4564°
Rev number
1,518

§ Raw data

SBIRS GEO-6 (USA 336)1 53355U 22092A   26262.83916229 -.00000295  00000+0  00000+0 0  99992 53355   3.1088 319.1666 0001915 213.2225 267.4564  1.00272145 15189

JSON: /api/v1/satellites/53355 · /tle

For live sub-satellite position, see the globe view (requires WebGL).

§ Visibility from observer

Set your observer location to see the next 7 days of passes ≥ 10°. The values pass through the URL so the page stays shareable.

No JS? Fill the form by hand. The geolocation button needs JavaScript.